SCP
0 0 0 0 0 0 0 0 0 0 0 0 0 0 0 -0 0 -0 -1 -0 0 1 1 0 1 1 1 1 1 0 -0 0 0 -0 -0 -0 0 0 0 0 0 0 0 0
0 0 0 0 0 0 0 0 0 0 0 0 0 0 0 0 0 0 -0 0 1 0 0 1 1 1 1 1 0 0 0 0 0 0 0 0 0 0 0 0 0 0 0 0
0 0 0 0 0 0 0 0 0 0 0 0 0 0 0 0 0 0 0 1 0 0 0 0 0 0 0 1 0 0 0 0 0 0 0 0 0 0 1 0 0 0 0 0
0 0 0 0 0 0 0 0 0 -0 0 0 0 0 0 0 0 0 1 1 1 0 0 0 0 0 1 1 1 0 0 0 0 0 1 0 1 1 0 0 0 0 0 0
0 0 0 0 0 0 0 0 -0 -0 0 0 0 0 0 1 1 1 2 1 1 0 0 0 0 0 1 1 1 1 1 1 1 1 1 1 1 1 1 0 0 0 0 0
0 0 0 0 0 0 0 0 0 0 0 0 1 0 2 1 1 1 1 2 1 1 1 1 0 0 1 1 1 1 1 1 1 1 1 1 1 0 0 0 0 0 0 0
0 0 0 0 0 0 0 0 0 1 1 1 1 2 1 1 0 0 1 1 1 1 1 1 1 0 1 1 1 0 0 0 0 0 0 0 0 0 0 0 0 0 0 0
1 0 0 0 0 0 1 1 1 1 1 1 1 0 0 0 0 0 1 0 0 0 0 0 0 0 0 0 0 0 0 0 0 0 0 0 0 0 0 0 0 0 0 0
0 1 0 0 1 1 1 2 1 1 1 1 1 0 0 -0 0 0 0 0 0 0 0 0 0 0 0 0 0 0 0 0 0 0 0 0 0 0 0 0 0 0 0 0
0 0 0 0 0 0 1 1 1 1 1 1 0 -0 -0 -0 0 0 0 0 0 0 0 0 0 0 0 0 0 0 0 0 0 0 0 0 0 0 0 0 0 0 0 0
0 0 0 0 0 0 0 1 1 1 1 0 0 0 0 0 0 0 0 0 0 0 0 0 0 0 0 0 0 0 0 0 0 0 0 0 0 0 0 0 0 0 0 0
0 0 0 1 0 0 0 0 0 0 1 1 1 0 0 0 0 0 0 0 0 0 0 0 0 0 0 0 0 0 0 0 0 0 0 0 0 0 -0 -0 -0 -0 0 0
0 0 0 0 0 0 0 0 0 1 1 0 0 0 0 1 1 0 0 0 0 0 0 0 0 0 0 0 0 0 0 0 0 0 0 0 0 0 0 0 0 0 0 0
0 0 0 0 0 0 0 0 0 1 1 1 1 1 1 1 0 0 0 0 0 0 0 0 0 0 0 0 0 0 0 0 0 0 0 0 0 0 0 0 0 0 -0 -0
0 0 0 0 0 0 0 0 1 1 1 1 1 1 0 0 0 0 0 0 0 0 0 0 0 0 0 0 0 0 0 0 0 0 0 0 0 0 0 0 0 0 0 0
0 0 0 0 0 0 0 1 1 1 1 1 1 0 0 0 0 0 0 0 0 0 0 0 0 0 0 0 0 0 0 0 0 0 0 0 0 0 0 0 0 -0 -0 -0
1 0 0 0 0 0 1 1 1 1 0 0 0 0 0 0 0 0 0 0 0 0 0 0 0 0 0 0 0 0 0 0 0 0 0 0 0 0 0 0 0 -0 -0 -0
0 0 0 0 0 1 1 1 1 0 0 0 0 0 0 0 0 0 0 0 0 0 0 0 0 0 0 0 0 0 0 0 0 0 0 0 0 0 0 0 0 0 -0 -0
0 0 1 1 1 1 1 0 0 0 0 0 0 0 0 0 0 0 0 0 0 0 0 0 0 0 0 0 -0 -0 0 0 0 0 0 0 0 0 0 0 0 0 0 0
0 0 1 1 1 0 0 0 0 0 0 0 0 0 0 0 0 0 0 0 0 0 0 0 0 0 0 0 0 -0 0 0 0 0 0 0 0 0 0 0 0 0 0 0
0 0 0 0 0 0 0 0 0 0 0 0 0 0 0 0 0 0 0 0 0 0 0 0 0 0 0 0 0 -0 -0 0 0 0 0 0 0 0 0 0 0 0 0 0
0 0 0 0 0 0 0 0 0 0 0 0 0 0 0 0 0 0 0 0 0 0 0 0 0 0 -0 0 -0 -0 -0 -0 0 0 0 0 0 0 0 0 0 0 0 0
0 0 0 0 0 0 0 0 0 0 0 0 0 0 0 0 0 0 0 0 0 0 0 0 0 0 0 0 0 -0 -0 0 0 0 0 0 0 0 0 0 0 0 0 0
0 0 0 0 0 0 0 0 0 0 0 0 0 0 0 0 0 0 0 0 0 0 0 0 0 0 0 0 0 -0 0 0 0 0 0 0 0 0 0 0 0 0 0 0
0 0 0 0 0 0 0 0 0 0 0 0 0 0 0 0 0 0 0 0 0 0 0 0 0 0 0 0 -0 0 0 0 0 0 0 0 0 0 0 0 0 0 0 0
0 0 0 0 0 0 0 0 0 0 0 0 0 0 0 0 0 0 0 0 0 0 0 0 0 0 -0 -0 -0 0 0 0 0 0 0 0 0 0 0 0 0 0 0 0
0 0 0 0 0 0 0 0 0 0 0 0 0 0 0 0 0 0 0 0 0 0 0 0 0 -0 -0 -0 0 0 0 0 0 0 0 0 0 0 0 0 0 0 0 0
Wind_Speed_500mb
5 5 7 17 15 18 20 12 15 14 3 13 6 7 23 27 35 44 48 48 42 34 26 33 31 34 34 33 39 37 33 29 21 13 11 12 16 20 21 20 21 26 34 35
24 10 14 19 16 18 18 11 16 13 16 14 2 5 22 30 38 47 48 43 40 32 22 28 32 34 31 36 40 38 29 20 14 12 14 21 21 26 27 18 21 28 37 41
26 12 14 21 25 23 17 17 19 17 6 8 3 6 14 25 33 35 29 29 29 22 17 22 32 32 29 30 34 33 25 19 16 16 22 31 30 27 22 24 30 33 38 37
18 13 24 6 6 14 18 19 21 21 14 9 7 17 12 11 20 20 24 30 18 5 4 19 21 21 22 23 24 22 19 16 16 21 28 34 23 20 25 29 32 34 36 37
13 24 6 12 12 18 19 22 29 27 16 8 4 20 28 15 17 26 30 21 19 17 10 8 9 11 17 18 16 14 11 13 17 22 19 18 20 24 29 32 35 38 39 41
18 22 19 24 16 10 4 20 12 13 13 10 10 16 14 25 36 39 37 30 23 25 19 9 5 5 12 11 7 3 8 12 15 22 21 24 32 38 39 38 40 42 46 44
19 16 9 14 14 15 16 6 11 7 8 9 8 7 42 40 41 41 45 34 26 20 20 16 11 8 17 14 8 9 10 17 24 30 32 34 40 44 47 49 51 48 41 38
2 9 16 12 16 12 8 9 7 6 10 26 38 42 41 42 48 51 51 55 51 31 18 5 13 15 16 12 5 12 20 26 33 37 39 37 45 45 44 40 38 37 35 35
8 9 8 14 6 8 7 10 7 14 29 40 44 43 46 45 42 37 31 31 31 43 33 32 28 19 7 4 12 22 31 36 39 41 41 37 36 34 31 29 32 34 34 34
6 10 9 13 17 10 10 8 11 21 34 34 35 38 35 30 28 25 31 41 41 38 40 31 19 7 6 15 23 28 28 29 28 24 30 26 22 23 24 26 28 30 33 32
11 13 14 20 16 16 19 17 14 24 31 35 44 33 35 34 33 33 35 35 35 36 29 19 9 5 14 20 22 23 19 18 19 20 25 23 22 22 20 21 29 26 27 30
6 6 6 11 6 20 19 20 15 30 40 36 34 21 28 35 39 39 38 36 32 28 21 11 2 12 19 23 22 19 13 14 19 18 19 20 22 24 32 40 40 30 30 34
3 2 6 6 5 7 20 16 16 33 31 39 38 36 39 41 40 41 37 34 28 22 11 1 8 12 16 17 17 16 14 21 14 18 21 25 27 28 32 30 37 43 48 47
9 6 8 5 8 9 14 18 23 26 33 34 37 39 41 42 42 37 33 30 24 15 7 2 6 8 8 11 14 18 18 24 17 18 20 23 27 30 32 35 39 38 39 49
19 13 7 7 9 15 19 24 28 29 32 35 36 41 40 42 39 36 34 29 22 14 9 7 7 8 10 13 15 17 16 15 15 17 21 27 27 28 31 35 39 42 45 44
15 24 16 7 12 15 19 24 25 26 29 33 38 38 38 37 36 38 32 24 16 14 13 13 13 11 11 11 13 12 15 22 21 19 22 23 24 24 26 31 37 42 48 49
10 18 20 18 18 18 17 18 19 24 29 34 36 39 39 39 36 34 27 22 20 22 22 18 14 10 12 13 12 11 14 17 25 18 18 18 18 20 24 28 33 36 40 52
12 10 16 17 23 19 17 18 21 25 31 36 39 39 38 34 31 30 27 26 27 25 20 14 11 11 14 14 10 12 14 15 16 17 16 18 18 20 23 28 32 34 39 45
14 13 18 25 24 23 23 24 27 31 35 39 40 35 30 27 26 26 29 28 25 20 15 12 14 17 12 15 12 7 11 14 17 18 18 24 21 24 25 29 32 34 39 42
19 22 25 27 26 26 31 31 35 38 39 38 36 32 28 25 27 30 29 24 18 17 16 15 18 12 7 2 11 6 13 17 20 22 24 25 24 27 27 32 34 36 39 40
27 28 29 31 33 32 33 34 37 38 37 30 25 25 28 30 30 28 23 15 15 16 17 19 18 9 4 7 14 14 17 21 23 24 24 25 27 28 29 31 32 35 38 39
27 29 33 34 35 36 31 29 27 26 27 28 26 28 30 29 26 19 17 13 13 15 15 16 12 9 8 13 14 17 20 21 23 24 24 24 24 26 27 29 32 35 36 39
26 28 30 29 29 28 24 20 20 20 24 24 24 25 21 20 17 14 8 12 13 15 18 18 18 12 10 18 19 22 23 23 22 23 22 22 23 25 28 31 34 36 39 41
25 28 30 32 34 33 32 29 27 24 18 13 16 22 20 15 12 12 8 12 18 18 22 20 17 11 16 22 22 24 25 24 23 24 25 27 26 29 31 33 37 39 41 46
25 27 26 22 19 17 21 22 21 19 19 19 22 23 19 14 9 10 10 10 16 16 21 17 15 16 20 20 24 25 26 26 24 25 27 28 29 31 35 38 40 43 46 46
23 19 18 16 16 18 20 22 20 19 18 17 17 18 16 15 13 12 10 10 12 17 22 18 16 18 21 24 26 27 25 26 25 27 31 30 32 35 39 42 42 44 46 48
22 21 18 15 14 16 16 18 19 19 20 16 14 15 16 16 15 16 18 15 12 13 17 20 21 21 23 25 27 25 24 24 29 30 31 32 33 35 37 39 40 41 44 49
Wind_Direction_500mb
108 36 45 305 194 206 244 315 303 39 304 101 359 236 210 192 190 185 188 186 179 167 178 183 185 180 179 177 177 181 178 156 165 193 244 273 277 302 312 316 325 334 339 338
245 227 260 256 233 207 226 245 252 271 271 98 72 243 200 204 202 195 195 192 184 182 173 187 184 179 179 181 181 183 187 186 200 230 260 312 298 298 305 299 312 322 331 339
221 205 244 236 220 208 217 235 247 244 303 134 167 249 234 220 208 203 191 186 190 193 230 214 189 185 182 179 186 191 196 214 238 273 281 309 303 297 288 296 308 317 321 326
218 191 224 116 56 216 230 237 237 256 265 285 356 45 31 200 200 185 169 171 159 70 170 156 167 173 174 180 190 204 228 250 273 284 288 297 287 284 294 300 304 309 312 314
188 215 205 182 196 201 204 241 222 245 248 241 104 125 65 100 145 150 146 135 139 94 113 162 200 170 166 179 204 222 252 273 282 286 292 280 285 293 299 300 303 306 308 309
199 243 232 242 130 173 269 246 226 221 230 225 199 251 102 128 136 131 122 109 104 97 90 62 298 195 165 167 161 220 270 268 277 285 288 291 293 298 299 302 306 303 302 303
193 230 190 90 125 155 226 42 79 143 165 170 183 35 144 144 143 141 118 110 109 95 91 100 278 219 147 143 181 234 267 287 293 296 299 301 300 303 305 305 305 307 305 305
203 239 233 134 141 232 59 98 90 101 125 124 130 135 141 149 152 151 149 142 134 127 125 142 182 177 158 173 235 293 306 307 306 305 305 306 309 313 313 318 319 316 317 317
308 43 107 177 62 132 97 104 103 129 132 135 137 142 148 150 156 163 168 186 185 177 157 198 176 173 177 309 320 317 315 311 311 312 310 313 315 322 330 326 324 321 321 318
273 146 222 204 199 190 176 148 138 147 142 135 140 152 159 159 152 147 151 148 149 151 165 174 161 158 298 317 316 313 314 315 317 327 330 333 344 335 335 332 328 328 325 324
261 240 247 229 208 204 189 169 138 157 159 143 147 154 162 155 150 149 143 147 152 156 154 146 151 274 313 331 341 349 349 348 346 353 350 351 349 339 347 338 332 335 330 327
340 80 255 92 169 197 184 180 159 163 153 141 134 175 169 152 146 143 140 142 142 142 144 149 278 332 349 353 359 9 20 6 1 11 360 358 2 1 348 345 344 343 328 320
26 92 151 95 77 145 180 190 180 172 175 158 167 175 167 155 149 151 146 150 151 156 161 165 359 360 358 9 18 32 31 30 16 14 4 3 4 360 358 351 344 341 343 345
221 146 154 108 84 93 139 154 155 155 162 163 159 159 156 153 146 147 146 159 164 164 154 64 359 2 37 48 39 29 24 8 15 12 7 7 7 5 1 353 351 351 348 345
214 197 128 100 106 129 132 137 146 150 151 154 157 157 158 152 153 152 156 159 157 152 143 116 97 85 61 40 34 31 26 9 14 15 9 19 12 10 5 3 359 354 351 345
220 213 212 220 155 152 149 148 150 153 157 159 160 158 157 155 154 157 162 156 149 141 138 130 121 103 80 57 52 37 14 21 34 23 19 12 10 9 6 6 4 4 2 354
195 194 191 183 160 157 157 156 159 160 159 159 158 156 155 153 153 156 151 151 153 144 141 141 134 108 84 70 58 45 28 15 30 17 12 5 2 359 359 1 358 359 0 3
206 190 189 191 165 153 137 132 142 152 156 158 155 152 152 155 154 151 152 151 145 141 141 137 122 104 93 82 72 49 33 18 16 7 360 348 350 347 344 345 344 346 346 346
190 168 147 147 145 143 135 132 137 144 146 148 147 147 149 152 155 159 156 151 146 142 149 138 130 120 116 86 64 22 8 3 354 350 347 344 342 334 333 329 332 336 336 337
149 141 138 138 138 140 136 137 140 141 143 146 148 156 165 174 167 158 156 149 150 168 156 154 138 145 150 80 20 341 332 335 335 338 331 336 333 329 329 326 325 329 329 331
123 124 127 129 125 123 128 136 139 142 146 152 157 157 153 154 154 153 152 157 169 163 156 164 156 170 229 282 311 322 323 330 331 329 325 325 325 327 324 324 324 326 326 328
119 124 124 122 122 120 125 130 136 139 143 140 138 146 147 147 150 148 157 161 173 179 173 174 182 218 229 299 311 314 321 323 326 326 324 320 319 319 320 324 325 324 323 326
122 126 124 123 127 129 128 128 129 130 125 121 133 136 142 153 156 153 184 202 191 207 188 188 206 218 289 317 313 312 311 307 310 315 315 311 311 312 315 316 317 321 321 321
129 128 127 132 136 136 137 139 143 145 143 147 167 167 163 155 177 182 189 192 201 210 189 197 218 251 298 311 313 309 305 304 303 301 302 307 310 312 314 316 316 318 319 321
135 132 130 132 134 136 138 143 137 139 146 152 171 178 179 179 183 203 203 225 241 215 201 223 235 274 300 311 309 310 312 304 295 300 297 298 306 315 316 315 314 315 315 320
144 146 147 139 141 144 151 147 145 153 155 160 169 178 187 195 200 205 227 233 236 227 215 231 258 274 287 302 310 316 312 312 303 303 307 300 301 307 313 314 314 316 317 320
156 159 155 157 157 160 160 164 166 173 170 172 179 192 202 216 227 234 239 243 246 232 230 241 262 269 284 302 320 313 313 318 318 308 305 309 310 311 313 315 317 319 323 325
Wind_Speed_850mb
5 5 7 17 15 18 20 12 15 14 3 13 6 7 23 27 35 44 48 48 42 34 26 33 31 34 34 33 39 37 33 29 21 13 11 12 16 20 21 20 21 26 34 35
24 10 14 19 16 18 18 11 16 13 16 14 2 5 22 30 38 47 48 43 40 32 22 28 32 34 31 36 40 38 29 20 14 12 14 21 21 26 27 18 21 28 37 41
26 12 14 21 25 23 17 17 19 17 6 8 3 6 14 25 33 35 29 29 29 22 17 22 32 32 29 30 34 33 25 19 16 16 22 31 30 27 22 24 30 33 38 37
18 13 24 6 6 14 18 19 21 21 14 9 7 17 12 11 20 20 24 30 18 5 4 19 21 21 22 23 24 22 19 16 16 21 28 34 23 20 25 29 32 34 36 37
13 24 6 12 12 18 19 22 29 27 16 8 4 20 28 15 17 26 30 21 19 17 10 8 9 11 17 18 16 14 11 13 17 22 19 18 20 24 29 32 35 38 39 41
18 22 19 24 16 10 4 20 12 13 13 10 10 16 14 25 36 39 37 30 23 25 19 9 5 5 12 11 7 3 8 12 15 22 21 24 32 38 39 38 40 42 46 44
19 16 9 14 14 15 16 6 11 7 8 9 8 7 42 40 41 41 45 34 26 20 20 16 11 8 17 14 8 9 10 17 24 30 32 34 40 44 47 49 51 48 41 38
2 9 16 12 16 12 8 9 7 6 10 26 38 42 41 42 48 51 51 55 51 31 18 5 13 15 16 12 5 12 20 26 33 37 39 37 45 45 44 40 38 37 35 35
8 9 8 14 6 8 7 10 7 14 29 40 44 43 46 45 42 37 31 31 31 43 33 32 28 19 7 4 12 22 31 36 39 41 41 37 36 34 31 29 32 34 34 34
6 10 9 13 17 10 10 8 11 21 34 34 35 38 35 30 28 25 31 41 41 38 40 31 19 7 6 15 23 28 28 29 28 24 30 26 22 23 24 26 28 30 33 32
11 13 14 20 16 16 19 17 14 24 31 35 44 33 35 34 33 33 35 35 35 36 29 19 9 5 14 20 22 23 19 18 19 20 25 23 22 22 20 21 29 26 27 30
6 6 6 11 6 20 19 20 15 30 40 36 34 21 28 35 39 39 38 36 32 28 21 11 2 12 19 23 22 19 13 14 19 18 19 20 22 24 32 40 40 30 30 34
3 2 6 6 5 7 20 16 16 33 31 39 38 36 39 41 40 41 37 34 28 22 11 1 8 12 16 17 17 16 14 21 14 18 21 25 27 28 32 30 37 43 48 47
9 6 8 5 8 9 14 18 23 26 33 34 37 39 41 42 42 37 33 30 24 15 7 2 6 8 8 11 14 18 18 24 17 18 20 23 27 30 32 35 39 38 39 49
19 13 7 7 9 15 19 24 28 29 32 35 36 41 40 42 39 36 34 29 22 14 9 7 7 8 10 13 15 17 16 15 15 17 21 27 27 28 31 35 39 42 45 44
15 24 16 7 12 15 19 24 25 26 29 33 38 38 38 37 36 38 32 24 16 14 13 13 13 11 11 11 13 12 15 22 21 19 22 23 24 24 26 31 37 42 48 49
10 18 20 18 18 18 17 18 19 24 29 34 36 39 39 39 36 34 27 22 20 22 22 18 14 10 12 13 12 11 14 17 25 18 18 18 18 20 24 28 33 36 40 52
12 10 16 17 23 19 17 18 21 25 31 36 39 39 38 34 31 30 27 26 27 25 20 14 11 11 14 14 10 12 14 15 16 17 16 18 18 20 23 28 32 34 39 45
14 13 18 25 24 23 23 24 27 31 35 39 40 35 30 27 26 26 29 28 25 20 15 12 14 17 12 15 12 7 11 14 17 18 18 24 21 24 25 29 32 34 39 42
19 22 25 27 26 26 31 31 35 38 39 38 36 32 28 25 27 30 29 24 18 17 16 15 18 12 7 2 11 6 13 17 20 22 24 25 24 27 27 32 34 36 39 40
27 28 29 31 33 32 33 34 37 38 37 30 25 25 28 30 30 28 23 15 15 16 17 19 18 9 4 7 14 14 17 21 23 24 24 25 27 28 29 31 32 35 38 39
27 29 33 34 35 36 31 29 27 26 27 28 26 28 30 29 26 19 17 13 13 15 15 16 12 9 8 13 14 17 20 21 23 24 24 24 24 26 27 29 32 35 36 39
26 28 30 29 29 28 24 20 20 20 24 24 24 25 21 20 17 14 8 12 13 15 18 18 18 12 10 18 19 22 23 23 22 23 22 22 23 25 28 31 34 36 39 41
25 28 30 32 34 33 32 29 27 24 18 13 16 22 20 15 12 12 8 12 18 18 22 20 17 11 16 22 22 24 25 24 23 24 25 27 26 29 31 33 37 39 41 46
25 27 26 22 19 17 21 22 21 19 19 19 22 23 19 14 9 10 10 10 16 16 21 17 15 16 20 20 24 25 26 26 24 25 27 28 29 31 35 38 40 43 46 46
23 19 18 16 16 18 20 22 20 19 18 17 17 18 16 15 13 12 10 10 12 17 22 18 16 18 21 24 26 27 25 26 25 27 31 30 32 35 39 42 42 44 46 48
22 21 18 15 14 16 16 18 19 19 20 16 14 15 16 16 15 16 18 15 12 13 17 20 21 21 23 25 27 25 24 24 29 30 31 32 33 35 37 39 40 41 44 49
Wind_Direction_850mb
108 36 45 305 194 206 244 315 303 39 304 101 359 236 210 192 190 185 188 186 179 167 178 183 185 180 179 177 177 181 178 156 165 193 244 273 277 302 312 316 325 334 339 338
245 227 260 256 233 207 226 245 252 271 271 98 72 243 200 204 202 195 195 192 184 182 173 187 184 179 179 181 181 183 187 186 200 230 260 312 298 298 305 299 312 322 331 339
221 205 244 236 220 208 217 235 247 244 303 134 167 249 234 220 208 203 191 186 190 193 230 214 189 185 182 179 186 191 196 214 238 273 281 309 303 297 288 296 308 317 321 326
218 191 224 116 56 216 230 237 237 256 265 285 356 45 31 200 200 185 169 171 159 70 170 156 167 173 174 180 190 204 228 250 273 284 288 297 287 284 294 300 304 309 312 314
188 215 205 182 196 201 204 241 222 245 248 241 104 125 65 100 145 150 146 135 139 94 113 162 200 170 166 179 204 222 252 273 282 286 292 280 285 293 299 300 303 306 308 309
199 243 232 242 130 173 269 246 226 221 230 225 199 251 102 128 136 131 122 109 104 97 90 62 298 195 165 167 161 220 270 268 277 285 288 291 293 298 299 302 306 303 302 303
193 230 190 90 125 155 226 42 79 143 165 170 183 35 144 144 143 141 118 110 109 95 91 100 278 219 147 143 181 234 267 287 293 296 299 301 300 303 305 305 305 307 305 305
203 239 233 134 141 232 59 98 90 101 125 124 130 135 141 149 152 151 149 142 134 127 125 142 182 177 158 173 235 293 306 307 306 305 305 306 309 313 313 318 319 316 317 317
308 43 107 177 62 132 97 104 103 129 132 135 137 142 148 150 156 163 168 186 185 177 157 198 176 173 177 309 320 317 315 311 311 312 310 313 315 322 330 326 324 321 321 318
273 146 222 204 199 190 176 148 138 147 142 135 140 152 159 159 152 147 151 148 149 151 165 174 161 158 298 317 316 313 314 315 317 327 330 333 344 335 335 332 328 328 325 324
261 240 247 229 208 204 189 169 138 157 159 143 147 154 162 155 150 149 143 147 152 156 154 146 151 274 313 331 341 349 349 348 346 353 350 351 349 339 347 338 332 335 330 327
340 80 255 92 169 197 184 180 159 163 153 141 134 175 169 152 146 143 140 142 142 142 144 149 278 332 349 353 359 9 20 6 1 11 360 358 2 1 348 345 344 343 328 320
26 92 151 95 77 145 180 190 180 172 175 158 167 175 167 155 149 151 146 150 151 156 161 165 359 360 358 9 18 32 31 30 16 14 4 3 4 360 358 351 344 341 343 345
221 146 154 108 84 93 139 154 155 155 162 163 159 159 156 153 146 147 146 159 164 164 154 64 359 2 37 48 39 29 24 8 15 12 7 7 7 5 1 353 351 351 348 345
214 197 128 100 106 129 132 137 146 150 151 154 157 157 158 152 153 152 156 159 157 152 143 116 97 85 61 40 34 31 26 9 14 15 9 19 12 10 5 3 359 354 351 345
220 213 212 220 155 152 149 148 150 153 157 159 160 158 157 155 154 157 162 156 149 141 138 130 121 103 80 57 52 37 14 21 34 23 19 12 10 9 6 6 4 4 2 354
195 194 191 183 160 157 157 156 159 160 159 159 158 156 155 153 153 156 151 151 153 144 141 141 134 108 84 70 58 45 28 15 30 17 12 5 2 359 359 1 358 359 0 3
206 190 189 191 165 153 137 132 142 152 156 158 155 152 152 155 154 151 152 151 145 141 141 137 122 104 93 82 72 49 33 18 16 7 360 348 350 347 344 345 344 346 346 346
190 168 147 147 145 143 135 132 137 144 146 148 147 147 149 152 155 159 156 151 146 142 149 138 130 120 116 86 64 22 8 3 354 350 347 344 342 334 333 329 332 336 336 337
149 141 138 138 138 140 136 137 140 141 143 146 148 156 165 174 167 158 156 149 150 168 156 154 138 145 150 80 20 341 332 335 335 338 331 336 333 329 329 326 325 329 329 331
123 124 127 129 125 123 128 136 139 142 146 152 157 157 153 154 154 153 152 157 169 163 156 164 156 170 229 282 311 322 323 330 331 329 325 325 325 327 324 324 324 326 326 328
119 124 124 122 122 120 125 130 136 139 143 140 138 146 147 147 150 148 157 161 173 179 173 174 182 218 229 299 311 314 321 323 326 326 324 320 319 319 320 324 325 324 323 326
122 126 124 123 127 129 128 128 129 130 125 121 133 136 142 153 156 153 184 202 191 207 188 188 206 218 289 317 313 312 311 307 310 315 315 311 311 312 315 316 317 321 321 321
129 128 127 132 136 136 137 139 143 145 143 147 167 167 163 155 177 182 189 192 201 210 189 197 218 251 298 311 313 309 305 304 303 301 302 307 310 312 314 316 316 318 319 321
135 132 130 132 134 136 138 143 137 139 146 152 171 178 179 179 183 203 203 225 241 215 201 223 235 274 300 311 309 310 312 304 295 300 297 298 306 315 316 315 314 315 315 320
144 146 147 139 141 144 151 147 145 153 155 160 169 178 187 195 200 205 227 233 236 227 215 231 258 274 287 302 310 316 312 312 303 303 307 300 301 307 313 314 314 316 317 320
156 159 155 157 157 160 160 164 166 173 170 172 179 192 202 216 227 234 239 243 246 232 230 241 262 269 284 302 320 313 313 318 318 308 305 309 310 311 313 315 317 319 323 325